This is the latest recevied weather packets stored in our database for station/object YREN. If no packets are shown the sender has not sent any weather packets the latest 10 day(s).
| Time | Temp. | Humidity | Pressure | Rain* | Wind** | Luminosity | Snow |
|---|---|---|---|---|---|---|---|
| 1787917804 | 10.56° C | 82% | 1031.1 hPa | 0 mm | - | - | - |
| 1787916904 | 10.56° C | 82% | 1031.1 hPa | 0 mm | - | - | - |
| 1787916003 | 10.56° C | 84% | 1030.9 hPa | 0 mm | - | - | - |
| 1787915103 | 10.56° C | 84% | 1030.9 hPa | 0 mm | - | - | - |
| 1787914204 | 12.22° C | 75% | 1030.6 hPa | 0 mm | - | - | - |
| 1787913303 | 12.22° C | 75% | 1030.6 hPa | 0 mm | - | - | - |
| 1787912403 | 10.56° C | 83% | 1030.6 hPa | 0 mm | - | - | - |
| 1787911503 | 10.56° C | 83% | 1030.6 hPa | 0 mm | - | - | - |
| 1787910604 | 11.67° C | 78% | 1030.1 hPa | 0 mm | - | - | - |
| 1787909703 | 11.67° C | 78% | 1030.1 hPa | 0 mm | - | - | - |
| 1787908804 | 12.78° C | 74% | 1029.8 hPa | 0 mm | - | - | - |
| 1787907904 | 12.78° C | 74% | 1029.8 hPa | 0 mm | - | - | - |
| 1787907013 | 14.44° C | 65% | 1029.5 hPa | 0 mm | - | - | - |
| 1787906104 | 14.44° C | 65% | 1029.5 hPa | 0 mm | - | - | - |
| 1787905204 | 17.22° C | 54% | 1029.3 hPa | 0 mm | - | - | - |
| 1787904304 | 17.22° C | 54% | 1029.3 hPa | 0 mm | - | - | - |
| 1787903404 | 18.33° C | 50% | 1029.1 hPa | 0 mm | - | - | - |
| 1787902504 | 18.33° C | 50% | 1029.1 hPa | 0 mm | - | - | - |
| 1787901603 | 19.44° C | 47% | 1028.9 hPa | 0 mm | - | - | - |
| 1787900703 | 19.44° C | 47% | 1028.9 hPa | 0 mm | - | - | - |
| 1787899804 | 19.44° C | 44% | 1028.8 hPa | 0 mm | - | - | - |
| 1787898904 | 19.44° C | 44% | 1028.8 hPa | 0 mm | - | - | - |
| 1787898004 | 20° C | 47% | 1028.9 hPa | 0 mm | - | - | - |
| 1787897104 | 20° C | 47% | 1028.9 hPa | 0 mm | - | - | - |
| 1787896204 | 20° C | 43% | 1029 hPa | 0 mm | - | - | - |
* Rain latest hour (hover to see other rain measurements)
** Current wind speed in m/s (hover to see current wind gust speed)